When you browse on this site, cookies collect data to enhance your experience and personalize the content and advertising you see.
Visit our Privacy Policy to learn more. By continuing to use the site, you agree to this use of cookies and data.

Meteo pe oră la Alicante

Astăzi, 14 August, Vineri

Timp Temperatura Precipitaţii Vânt Presiune Umiditate
00:00 +28°C° 0 mm 1 m/s 760 mmHg 66%
01:00 +27°C° 0 mm 1 m/s 760 mmHg 66%
02:00 +27°C° 0 mm 1 m/s 759 mmHg 65%
03:00 +27°C° 0 mm 1 m/s 759 mmHg 64%
04:00 +27°C° 0 mm 1 m/s 759 mmHg 64%
05:00 +27°C° 0 mm 1 m/s 760 mmHg 64%
06:00 +27°C° 0 mm 2 m/s 760 mmHg 65%
07:00 +28°C° 0 mm 2 m/s 760 mmHg 59%
08:00 +30°C° 0 mm 2 m/s 760 mmHg 54%
09:00 +31°C° 0 mm 2 m/s 760 mmHg 48%
10:00 +33°C° 0 mm 3 m/s 760 mmHg 45%
11:00 +34°C° 0 mm 3 m/s 760 mmHg 42%
12:00 +35°C° 0 mm 4 m/s 760 mmHg 39%
13:00 +35°C° 0 mm 3 m/s 759 mmHg 39%
14:00 +35°C° 0 mm 3 m/s 759 mmHg 40%
15:00 +35°C° 0 mm 3 m/s 758 mmHg 41%
16:00 +34°C° 0 mm 3 m/s 758 mmHg 45%
17:00 +33°C° 0 mm 3 m/s 758 mmHg 48%
18:00 +31°C° 0 mm 3 m/s 758 mmHg 52%
19:00 +30°C° 0 mm 2 m/s 759 mmHg 57%
20:00 +29°C° 0 mm 2 m/s 759 mmHg 62%
21:00 +28°C° 0 mm 1 m/s 760 mmHg 67%
22:00 +27°C° 0 mm 1 m/s 760 mmHg 69%
23:00 +27°C° 0 mm 1 m/s 760 mmHg 70%

Mâine, 15 August, Sâmbătă

Timp Temperatura Precipitaţii Vânt Presiune Umiditate
00:00 +27°C° 0 mm 1 m/s 760 mmHg 71%
01:00 +26°C° 0 mm 1 m/s 759 mmHg 73%
02:00 +26°C° 0 mm 1 m/s 759 mmHg 74%
03:00 +25°C° 0 mm 1 m/s 758 mmHg 76%
04:00 +25°C° 0 mm 1 m/s 758 mmHg 74%
05:00 +25°C° 0 mm 1 m/s 759 mmHg 72%
06:00 +26°C° 0 mm 1 m/s 759 mmHg 71%
07:00 +27°C° 0 mm 1 m/s 759 mmHg 62%
08:00 +29°C° 0 mm 1 m/s 759 mmHg 52%
09:00 +31°C° 0 mm 2 m/s 759 mmHg 43%
10:00 +32°C° 0 mm 2 m/s 759 mmHg 41%
11:00 +34°C° 0 mm 3 m/s 759 mmHg 38%
12:00 +35°C° 0 mm 4 m/s 758 mmHg 35%
13:00 +36°C° 0 mm 4 m/s 758 mmHg 36%
14:00 +36°C° 0 mm 4 m/s 757 mmHg 37%
15:00 +36°C° 0 mm 5 m/s 757 mmHg 38%
16:00 +35°C° 0 mm 4 m/s 757 mmHg 41%
17:00 +34°C° 0 mm 4 m/s 756 mmHg 45%
18:00 +33°C° 0 mm 3 m/s 756 mmHg 48%
19:00 +31°C° 0 mm 3 m/s 757 mmHg 54%
20:00 +30°C° 0 mm 3 m/s 757 mmHg 59%
21:00 +29°C° 0 mm 2 m/s 757 mmHg 64%
22:00 +28°C° 0 mm 2 m/s 757 mmHg 63%
23:00 +28°C° 0 mm 2 m/s 757 mmHg 62%

Poimâine, 16 August, Duminică

Timp Temperatura Precipitaţii Vânt Presiune Umiditate
00:00 +28°C° 0 mm 2 m/s 757 mmHg 60%
01:00 +27°C° 0 mm 2 m/s 757 mmHg 55%
02:00 +27°C° 0 mm 2 m/s 757 mmHg 50%
03:00 +27°C° 0 mm 2 m/s 756 mmHg 45%
04:00 +27°C° 0 mm 1 m/s 756 mmHg 42%
05:00 +27°C° 0 mm 1 m/s 757 mmHg 40%
06:00 +27°C° 0 mm 1 m/s 757 mmHg 37%
07:00 +29°C° 0 mm 1 m/s 757 mmHg 31%
08:00 +32°C° 0 mm 1 m/s 757 mmHg 24%
09:00 +34°C° 0 mm 1 m/s 757 mmHg 18%
10:00 +36°C° 0 mm 2 m/s 757 mmHg 19%
11:00 +37°C° 0 mm 2 m/s 757 mmHg 19%
12:00 +38°C° 0 mm 3 m/s 757 mmHg 20%
13:00 +37°C° 0 mm 4 m/s 757 mmHg 23%
14:00 +37°C° 0 mm 4 m/s 757 mmHg 26%
15:00 +37°C° 0 mm 4 m/s 756 mmHg 29%
16:00 +36°C° 0 mm 4 m/s 756 mmHg 31%
17:00 +35°C° 0 mm 3 m/s 756 mmHg 32%
18:00 +34°C° 0 mm 2 m/s 756 mmHg 34%
19:00 +32°C° 0 mm 2 m/s 756 mmHg 38%
20:00 +31°C° 0 mm 2 m/s 757 mmHg 42%
21:00 +29°C° 0 mm 1 m/s 757 mmHg 45%
22:00 +29°C° 0 mm 2 m/s 758 mmHg 44%
23:00 +28°C° 0 mm 2 m/s 758 mmHg 43%

17 August, Luni

Timp Temperatura Precipitaţii Vânt Presiune Umiditate
00:00 +28°C° 0 mm 2 m/s 758 mmHg 42%
01:00 +28°C° 0 mm 2 m/s 757 mmHg 37%
02:00 +27°C° 0 mm 2 m/s 757 mmHg 33%
03:00 +27°C° 0 mm 1 m/s 757 mmHg 29%
04:00 +27°C° 0 mm 1 m/s 757 mmHg 30%
05:00 +27°C° 0 mm 1 m/s 757 mmHg 31%
06:00 +27°C° 0 mm 1 m/s 757 mmHg 32%
07:00 +29°C° 0 mm 1 m/s 758 mmHg 28%
08:00 +31°C° 0 mm 2 m/s 758 mmHg 25%
09:00 +34°C° 0 mm 2 m/s 758 mmHg 21%
10:00 +35°C° 0 mm 2 m/s 758 mmHg 23%
11:00 +36°C° 0 mm 3 m/s 758 mmHg 26%
12:00 +36°C° 0 mm 3 m/s 758 mmHg 28%
13:00 +36°C° 0 mm 3 m/s 758 mmHg 31%
14:00 +36°C° 0 mm 3 m/s 758 mmHg 33%
15:00 +36°C° 0 mm 4 m/s 757 mmHg 36%
16:00 +35°C° 0 mm 3 m/s 757 mmHg 38%
17:00 +34°C° 0 mm 3 m/s 757 mmHg 41%
18:00 +32°C° 0 mm 2 m/s 757 mmHg 43%
19:00 +31°C° 0 mm 2 m/s 758 mmHg 47%
20:00 +30°C° 0 mm 1 m/s 758 mmHg 50%
21:00 +29°C° 0 mm 1 m/s 759 mmHg 53%
22:00 +29°C° 0 mm 1 m/s 759 mmHg 54%
23:00 +28°C° 0 mm 1 m/s 759 mmHg 56%

18 August, Marţi

Timp Temperatura Precipitaţii Vânt Presiune Umiditate
00:00 +27°C° 0 mm 2 m/s 759 mmHg 57%
01:00 +27°C° 0 mm 1 m/s 759 mmHg 59%
02:00 +26°C° 0 mm 1 m/s 759 mmHg 61%
03:00 +26°C° 0 mm 1 m/s 758 mmHg 63%
04:00 +26°C° 0 mm 1 m/s 758 mmHg 59%
05:00 +26°C° 0 mm 1 m/s 758 mmHg 55%
06:00 +27°C° 0 mm 1 m/s 758 mmHg 50%
07:00 +29°C° 0 mm 1 m/s 759 mmHg 44%
08:00 +31°C° 0 mm 2 m/s 759 mmHg 38%
09:00 +35°C° 0 mm 2 m/s 759 mmHg 31%
10:00 +34°C° 0 mm 3 m/s 759 mmHg 37%
11:00 +34°C° 0 mm 4 m/s 759 mmHg 42%
12:00 +34°C° 0 mm 5 m/s 759 mmHg 47%
13:00 +34°C° 0 mm 5 m/s 759 mmHg 49%
14:00 +34°C° 0 mm 5 m/s 758 mmHg 51%
15:00 +34°C° 0 mm 5 m/s 758 mmHg 53%
16:00 +33°C° 0 mm 5 m/s 758 mmHg 57%
17:00 +32°C° 0 mm 4 m/s 758 mmHg 61%
18:00 +30°C° 0 mm 4 m/s 758 mmHg 64%
19:00 +30°C° 0 mm 3 m/s 758 mmHg 68%
20:00 +29°C° 0 mm 3 m/s 759 mmHg 72%
21:00 +28°C° 0 mm 2 m/s 759 mmHg 76%
22:00 +28°C° 0 mm 2 m/s 759 mmHg 78%
23:00 +28°C° 0 mm 2 m/s 759 mmHg 80%

19 August, Miercuri

Timp Temperatura Precipitaţii Vânt Presiune Umiditate
00:00 +28°C° 0 mm 2 m/s 759 mmHg 81%
01:00 +27°C° 0 mm 2 m/s 759 mmHg 84%
02:00 +26°C° 0 mm 2 m/s 758 mmHg 87%
03:00 +26°C° 0 mm 1 m/s 758 mmHg 90%
04:00 +26°C° 0 mm 1 m/s 758 mmHg 88%
05:00 +26°C° 0 mm 1 m/s 758 mmHg 85%
06:00 +26°C° 0 mm 1 m/s 758 mmHg 83%
07:00 +28°C° 0 mm 1 m/s 758 mmHg 71%
08:00 +30°C° 0 mm 2 m/s 758 mmHg 60%
09:00 +32°C° 0 mm 2 m/s 758 mmHg 48%
10:00 +33°C° 0 mm 3 m/s 758 mmHg 46%
11:00 +34°C° 0 mm 3 m/s 758 mmHg 44%
12:00 +35°C° 0 mm 3 m/s 758 mmHg 43%
13:00 +35°C° 0 mm 3 m/s 757 mmHg 42%
14:00 +35°C° 0 mm 3 m/s 757 mmHg 42%
15:00 +36°C° 0 mm 3 m/s 756 mmHg 41%
16:00 +34°C° 0 mm 3 m/s 756 mmHg 45%
17:00 +33°C° 0 mm 3 m/s 756 mmHg 48%
18:00 +31°C° 0 mm 2 m/s 756 mmHg 52%
19:00 +30°C° 0 mm 2 m/s 756 mmHg 56%
20:00 +29°C° 0 mm 1 m/s 756 mmHg 61%
21:00 +28°C° 0 mm 1 m/s 757 mmHg 65%
22:00 +26°C° 0 mm 0 m/s 757 mmHg 65%
23:00 +25°C° 0 mm 0 m/s 756 mmHg 64%
Arată mai mult